Temperature
11 11 10 10 9 9 9 9 9 9 9 9 9 9 9 9 10 10 10 11 11 11 11 12 12 13 13 14 15 15 16 16 17 17 17 17 16 16 16 15 15 16 16
11 10 10 9 9 9 9 8 8 8 8 8 8 8 8 9 9 9 10 10 11 11 11 11 11 12 12 13 14 14 15 16 16 16 16 16 16 16 16 15 15 15 16
10 10 9 9 9 8 8 8 8 8 8 8 8 8 8 8 8 9 9 10 10 10 11 11 11 11 11 12 13 13 14 15 15 16 16 16 15 15 15 14 14 14 15
10 9 9 9 8 8 8 8 8 8 8 7 7 7 7 8 8 8 8 9 9 10 10 10 11 11 11 11 12 12 13 14 14 15 15 15 15 15 15 14 13 13 13
10 9 9 9 8 8 8 8 8 8 7 7 7 7 7 7 7 8 8 8 9 9 10 10 10 10 11 11 11 11 12 13 13 14 14 15 15 14 14 14 13 12 12
9 9 8 8 8 8 8 8 8 7 7 7 7 7 7 7 7 7 8 8 8 9 9 9 10 10 10 10 10 11 11 12 12 13 13 14 14 14 14 13 13 12 12
9 8 8 8 8 8 8 7 7 7 7 7 7 7 6 7 7 7 7 7 8 8 8 9 9 10 10 10 10 10 10 11 12 12 13 13 14 14 14 13 13 12 12
9 8 8 8 8 7 7 7 7 7 7 7 7 7 6 6 6 6 7 7 7 8 8 8 9 9 10 10 10 10 10 11 11 11 12 13 13 13 13 14 13 12 12
8 8 8 7 7 7 7 7 7 7 7 7 7 6 6 6 6 6 6 6 7 7 8 8 9 9 10 10 10 10 10 10 11 11 11 12 12 13 13 13 12 12 11
8 8 8 7 7 7 7 7 7 7 7 7 7 6 6 6 6 6 6 6 6 7 7 8 8 9 9 9 10 10 10 10 10 11 11 11 11 12 12 13 13 12 12
8 8 8 7 7 7 7 7 7 7 7 7 7 7 7 6 6 6 6 6 6 7 7 8 8 9 9 9 9 9 9 10 10 10 10 11 11 11 12 12 12 13 13
8 8 8 7 7 7 7 8 7 7 7 7 7 7 7 6 6 6 6 6 6 7 7 8 8 8 9 9 9 9 9 9 9 9 10 10 11 11 11 12 12 12 13
8 8 8 8 8 8 8 8 8 7 7 7 7 6 6 6 6 6 6 6 6 6 7 7 8 8 9 9 9 9 9 9 9 9 10 10 11 11 11 12 12 11 11
8 8 8 7 8 8 8 8 8 7 7 7 6 6 6 6 6 6 6 6 6 7 7 7 8 8 8 9 9 9 9 9 9 9 10 10 10 10 11 11 11 11 11
8 7 7 7 8 8 8 8 8 8 7 7 6 6 6 6 6 6 6 6 6 7 7 7 7 8 8 8 9 9 9 9 9 9 10 10 10 10 10 11 11 11 11
7 7 7 7 7 8 8 8 8 8 8 7 7 6 6 6 6 6 6 6 6 7 7 7 7 8 8 8 8 9 9 9 9 9 10 10 10 10 10 10 10 11 11
7 7 7 7 7 8 8 8 8 8 8 8 7 7 7 6 6 6 6 6 7 7 7 7 7 8 8 9 9 9 9 9 9 9 10 10 10 10 10 10 10 10 10
7 7 7 7 8 8 8 8 8 8 8 8 8 7 7 7 7 6 6 6 7 7 7 7 8 8 8 9 9 9 9 10 10 10 10 10 10 10 10 10 10 10 10
7 7 7 8 8 8 8 9 9 9 8 8 8 7 7 7 7 7 7 7 7 7 7 8 8 8 9 9 9 9 10 10 10 10 10 10 10 10 10 10 10 10 10
8 8 8 8 8 8 9 9 9 9 8 8 8 8 7 7 7 7 7 7 7 7 8 8 8 9 9 9 9 9 10 10 10 10 10 10 10 10 10 9 9 9 9
8 8 8 8 8 9 9 9 9 9 9 8 8 8 8 8 8 8 8 8 8 8 8 8 9 9 9 9 9 9 9 9 9 9 9 9 9 9 9 9 9 9 9
8 8 8 8 8 9 9 9 9 9 9 8 8 8 8 8 8 8 8 8 8 8 8 8 9 9 9 9 9 9 9 9 9 9 9 9 9 9 9 9 9 9 9
8 8 8 8 8 9 9 9 9 9 9 9 8 8 8 8 8 8 8 8 8 8 8 8 8 8 9 9 9 9 9 9 9 9 9 9 9 9 9 9 9 9 9
8 8 8 8 8 9 9 9 9 9 9 9 9 8 8 8 8 8 8 8 8 8 8 8 8 8 8 8 8 9 9 9 9 9 9 9 9 9 9 9 9 9 9
8 8 8 8 8 8 9 9 9 9 9 9 9 9 8 8 8 8 8 8 8 8 8 8 8 8 8 8 8 8 8 8 9 9 9 9 9 9 9 9 9 9 9
8 8 8 8 8 8 8 9 9 9 9 9 9 9 9 8 8 8 8 8 8 8 7 7 7 7 7 7 8 8 8 8 8 8 9 9 9 9 9 9 9 9 9
Wind_Speed
7 7 7 8 8 9 8 9 8 9 9 10 10 10 11 11 10 9 9 9 9 8 7 7 7 6 5 5 5 6 5 4 4 3 4 8 7 9 7 7 9 7 6
8 8 8 8 9 10 10 9 9 9 10 10 10 11 12 12 11 11 11 12 10 10 10 9 8 7 7 5 5 6 6 5 4 4 5 6 7 9 8 6 5 8 8
10 9 9 10 11 11 10 10 10 10 10 11 10 11 12 12 12 12 12 12 12 11 11 11 10 9 8 6 6 6 5 5 3 4 5 6 7 9 9 8 9 7 8
11 12 11 11 11 11 11 10 10 10 11 11 11 11 11 12 12 13 13 13 12 12 11 11 10 10 10 9 8 7 6 5 4 4 4 6 7 9 9 9 7 6 6
12 12 12 12 11 11 11 11 11 11 14 12 11 12 12 12 13 13 12 15 13 13 12 12 12 12 13 11 9 8 7 6 5 5 6 5 6 10 9 7 9 8 5
11 13 13 13 12 12 12 12 12 11 12 12 12 14 14 15 16 14 11 11 11 11 11 12 12 12 14 15 14 12 10 8 8 6 6 7 8 8 8 10 11 9 5
12 13 13 13 13 13 15 14 13 13 12 13 13 14 14 14 17 17 16 13 12 11 11 11 14 15 14 11 13 14 13 12 10 7 7 7 6 7 9 11 12 10 6
13 13 13 13 15 14 14 14 13 12 12 12 13 14 13 15 17 17 16 14 13 12 12 11 11 11 11 11 12 12 11 12 12 9 8 7 5 4 6 8 10 9 10
14 14 14 15 15 15 15 14 13 12 12 13 13 13 13 14 16 15 14 11 11 13 13 12 11 12 12 13 11 11 11 10 12 13 10 8 8 8 7 7 11 13 9
14 15 15 15 15 16 15 14 13 11 13 13 13 12 12 12 13 14 13 9 10 10 10 9 11 12 14 14 11 10 10 9 9 11 9 9 8 9 11 10 12 14 10
14 15 16 15 15 15 13 11 11 11 12 12 12 11 10 10 10 11 11 9 8 8 8 7 8 13 14 14 11 8 8 8 8 9 9 9 8 8 9 10 10 12 12
14 15 16 16 16 14 12 12 11 11 11 10 10 9 7 6 6 6 7 8 5 5 5 6 6 12 14 14 11 8 8 6 5 7 8 8 9 9 9 9 10 8 7
15 16 16 17 15 13 12 11 10 9 8 8 7 7 7 5 3 3 5 6 5 3 1 1 4 10 11 10 11 10 8 5 5 6 7 8 8 9 9 7 7 7 8
15 16 15 15 15 12 9 9 8 8 8 8 8 7 6 5 4 2 2 4 6 6 4 3 5 8 7 7 8 8 7 7 6 6 6 6 7 8 9 9 9 9 8
15 15 15 14 14 11 10 8 8 6 5 6 7 7 6 5 4 5 4 1 1 2 3 4 4 5 6 7 7 8 8 8 8 6 6 6 7 8 9 10 10 9 7
14 14 12 13 12 11 10 9 6 6 5 7 7 6 6 4 5 5 4 4 3 3 1 3 5 6 7 8 8 8 9 9 9 8 7 7 8 9 9 10 11 11 11
13 13 12 12 12 11 10 9 8 5 7 9 9 9 8 7 6 5 4 3 2 0 3 5 6 6 7 7 7 8 9 9 8 8 8 8 8 9 11 12 12 11 12
14 13 12 11 11 11 10 9 7 7 6 4 6 9 9 8 7 6 3 3 4 5 7 7 6 6 7 7 7 8 7 8 8 8 8 8 9 10 11 12 12 13 13
13 11 11 12 12 11 9 9 7 7 6 5 2 3 7 7 7 7 5 5 6 6 7 8 7 7 7 7 6 6 7 6 7 8 8 9 9 10 11 12 12 16 14
11 14 13 12 12 10 8 8 6 6 6 5 4 3 2 4 5 5 6 7 7 6 6 7 6 6 6 5 5 6 6 6 7 7 8 9 10 11 12 14 14 15 14
11 12 15 12 10 10 8 6 6 6 6 5 4 3 3 4 4 4 4 5 6 6 6 5 5 5 5 4 5 6 7 6 7 7 8 9 10 11 11 12 14 14 14
10 10 11 11 10 9 9 7 5 5 6 5 4 2 3 4 4 4 3 3 4 4 4 4 4 4 3 4 5 5 6 6 7 8 9 9 10 11 12 12 13 14 14
10 11 10 10 10 10 8 6 5 4 5 5 4 4 3 4 5 4 4 4 4 3 3 3 3 3 3 2 3 4 6 7 7 9 10 11 11 12 12 13 15 16 15
10 10 10 10 10 9 8 7 6 5 5 5 5 5 4 4 5 5 5 4 3 2 2 2 3 3 2 1 2 3 4 5 7 8 12 13 13 13 13 13 14 15 15
9 9 9 9 10 9 8 8 6 5 4 4 4 4 4 4 4 4 4 3 3 2 1 1 1 2 1 2 2 3 6 7 6 7 10 11 14 15 15 15 14 14 13
8 9 9 8 9 9 8 8 6 5 4 3 3 3 4 4 3 3 4 3 2 2 2 1 2 2 3 4 6 8 9 9 8 8 8 10 14 14 14 13 15 13 13
Wind_Direction
323 324 317 311 311 306 299 298 302 306 307 303 300 296 292 286 279 268 256 248 240 240 239 235 232 240 262 275 286 287 272 253 241 220 145 140 132 129 136 137 144 131 101
327 320 314 313 310 307 306 304 301 296 295 295 293 292 288 285 280 274 265 257 243 236 232 230 229 229 230 244 260 272 272 258 235 214 159 151 149 138 138 138 122 101 93
321 319 317 313 309 305 302 300 298 295 292 292 289 286 284 283 281 278 271 263 254 244 234 227 224 220 223 223 231 248 264 264 253 228 190 169 158 144 133 118 101 99 94
320 318 312 308 305 302 300 299 297 295 294 289 286 285 282 280 278 276 273 267 260 253 242 232 224 220 218 215 221 224 233 247 247 240 216 177 165 152 141 133 123 110 99
316 312 309 307 304 300 298 297 295 293 293 290 290 287 283 279 272 265 262 266 259 253 247 238 230 223 216 212 215 212 213 218 224 229 225 201 175 163 161 150 137 121 104
315 311 309 306 303 302 300 296 294 292 292 291 288 285 282 279 279 281 275 274 272 259 251 244 238 232 222 210 208 199 198 207 209 213 220 211 198 176 167 156 145 146 136
314 311 310 309 307 306 306 304 299 297 295 290 286 282 278 273 269 268 265 265 266 258 250 245 242 233 214 206 204 200 202 204 201 198 209 210 199 183 170 164 162 159 137
313 313 314 312 309 308 304 300 298 298 294 290 286 283 279 274 267 258 254 256 257 253 245 240 235 241 229 208 202 203 206 205 202 204 211 205 202 192 178 170 156 128 117
316 317 316 313 309 306 303 301 301 298 295 290 288 283 278 274 268 258 245 252 249 248 242 236 229 229 225 211 206 203 203 203 204 205 203 195 191 199 178 158 151 147 141
321 318 314 310 306 303 300 300 300 299 296 295 292 288 284 277 270 256 236 243 243 244 241 236 232 230 216 202 204 202 205 202 191 190 195 195 195 194 182 175 170 162 150
320 314 311 309 306 300 299 300 301 302 301 300 297 293 287 279 275 255 231 237 237 234 236 228 226 213 203 200 207 207 207 199 188 183 187 193 193 189 185 185 182 171 162
319 314 312 311 309 307 305 303 304 304 305 305 306 305 300 292 279 262 229 229 246 238 239 235 218 196 195 197 203 197 184 186 189 187 189 192 193 190 187 185 181 177 162
319 316 314 311 308 305 304 307 309 308 311 313 317 317 317 314 300 239 217 215 221 236 269 275 193 183 185 198 208 191 183 197 203 199 199 197 195 189 175 167 153 137 121
319 317 314 312 310 311 310 311 311 315 319 321 324 327 328 334 345 340 218 201 201 212 222 202 167 172 193 212 194 196 206 213 209 210 205 193 184 182 172 158 150 137 124
319 316 316 314 311 310 310 307 304 312 311 302 313 321 327 333 352 356 356 339 200 179 199 191 196 189 200 212 205 197 204 211 214 213 206 192 182 179 171 158 153 146 144
317 318 316 313 313 313 313 314 295 282 258 249 258 276 294 302 324 334 348 4 19 23 243 221 219 223 220 218 213 206 205 209 208 204 204 191 184 179 170 159 161 160 156
314 314 313 311 311 312 313 316 317 291 249 250 254 258 266 288 293 296 303 312 313 334 240 238 232 228 231 231 225 219 212 208 205 201 198 192 182 176 170 166 167 164 160
315 312 311 311 311 310 313 314 310 312 311 292 237 236 248 258 265 267 263 259 237 220 230 235 238 237 234 231 228 224 217 209 203 200 194 187 181 174 172 171 170 166 162
316 315 316 313 309 307 310 309 312 322 320 320 312 214 225 231 238 245 230 238 246 235 231 232 233 235 232 232 228 219 216 210 195 191 190 183 178 173 173 172 170 165 163
315 313 312 310 308 308 311 318 330 332 327 329 327 319 244 226 239 221 217 232 245 252 250 244 235 231 227 229 226 216 210 204 193 189 185 182 179 176 174 172 170 169 171
317 317 314 312 314 317 320 325 330 326 330 336 336 350 329 295 288 275 242 236 242 247 247 247 244 239 227 218 214 214 211 198 187 185 182 179 178 176 173 172 170 169 169
315 316 320 322 322 322 323 319 319 326 338 340 331 309 267 287 300 295 283 275 268 260 253 241 241 237 231 223 210 206 208 197 189 184 183 177 174 174 172 170 169 169 168
315 319 323 325 326 325 323 323 328 337 341 343 344 343 327 317 323 317 300 282 275 270 269 270 261 245 229 225 208 201 204 199 192 187 183 177 174 172 170 170 169 166 167
317 325 329 331 331 334 335 333 341 345 347 351 351 342 336 337 333 330 329 322 312 295 273 265 262 263 246 206 207 203 191 183 182 184 178 171 168 167 167 167 166 166 166
326 332 332 333 333 334 334 336 345 343 338 351 353 342 342 347 346 342 341 351 358 351 309 284 278 264 230 187 151 125 119 130 148 159 163 162 161 162 162 162 163 160 159
335 336 334 333 333 334 334 337 345 344 339 350 353 342 336 341 345 339 339 350 8 24 37 32 56 83 99 100 99 102 101 99 105 123 140 147 149 152 154 155 154 154 156
Height
1482 1478 1475 1472 1469 1465 1463 1460 1457 1455 1452 1450 1449 1447 1446 1446 1446 1446 1446 1447 1447 1448 1449 1449 1449 1451 1452 1455 1457 1460 1462 1466 1468 1470 1472 1474 1477 1479 1481 1484 1485 1487 1488
1478 1474 1471 1467 1464 1461 1458 1455 1452 1449 1447 1444 1442 1440 1439 1439 1439 1439 1439 1440 1441 1442 1443 1443 1444 1445 1446 1448 1451 1453 1457 1460 1464 1466 1468 1470 1473 1476 1479 1481 1483 1483 1485
1474 1470 1466 1463 1459 1456 1452 1449 1446 1443 1441 1438 1436 1434 1432 1431 1431 1431 1431 1432 1433 1434 1436 1437 1438 1439 1439 1441 1443 1447 1450 1454 1457 1461 1464 1467 1471 1473 1476 1479 1480 1481 1483
1470 1466 1462 1458 1454 1451 1447 1444 1441 1438 1435 1432 1430 1427 1426 1424 1423 1423 1423 1424 1425 1426 1428 1430 1431 1432 1433 1435 1437 1440 1444 1447 1451 1455 1460 1463 1467 1470 1472 1475 1477 1479 1481
1465 1462 1458 1454 1450 1446 1442 1439 1435 1432 1429 1426 1423 1420 1418 1417 1416 1415 1415 1415 1417 1418 1420 1422 1424 1426 1428 1429 1431 1433 1437 1440 1444 1448 1453 1458 1462 1465 1468 1471 1474 1477 1480
1461 1457 1453 1449 1445 1441 1437 1433 1429 1426 1422 1419 1416 1413 1410 1409 1408 1408 1407 1407 1408 1409 1411 1414 1417 1420 1421 1424 1425 1427 1430 1433 1437 1442 1446 1451 1455 1459 1464 1467 1470 1473 1478
1457 1453 1448 1444 1440 1436 1431 1427 1423 1420 1416 1412 1408 1405 1402 1399 1398 1398 1398 1398 1399 1400 1403 1406 1409 1412 1415 1417 1419 1421 1424 1427 1431 1436 1440 1444 1449 1454 1458 1462 1466 1470 1473
1453 1448 1444 1439 1434 1430 1425 1421 1417 1413 1409 1405 1401 1397 1393 1391 1390 1389 1388 1389 1389 1391 1394 1398 1401 1405 1408 1411 1413 1415 1417 1420 1424 1428 1434 1439 1444 1448 1453 1458 1462 1467 1472
1448 1443 1438 1434 1428 1424 1419 1415 1412 1407 1402 1398 1393 1389 1386 1382 1381 1379 1379 1379 1381 1383 1387 1390 1394 1398 1401 1405 1408 1410 1412 1414 1418 1422 1427 1432 1437 1442 1447 1453 1457 1462 1466
1444 1438 1433 1428 1423 1418 1414 1410 1406 1402 1396 1391 1387 1383 1379 1375 1373 1371 1371 1372 1373 1376 1380 1384 1388 1392 1396 1399 1402 1405 1408 1410 1413 1416 1420 1425 1430 1436 1441 1446 1450 1455 1460
1438 1433 1428 1423 1418 1414 1410 1406 1401 1396 1391 1386 1381 1377 1373 1369 1367 1365 1366 1367 1368 1371 1374 1378 1382 1386 1391 1395 1398 1401 1404 1407 1409 1412 1415 1420 1425 1430 1435 1440 1446 1450 1454
1434 1428 1423 1418 1413 1410 1405 1401 1397 1392 1387 1382 1377 1373 1369 1366 1363 1362 1362 1363 1365 1368 1371 1374 1378 1382 1386 1390 1394 1398 1401 1404 1406 1409 1411 1415 1419 1424 1430 1435 1441 1447 1452
1429 1424 1418 1413 1409 1405 1402 1397 1393 1389 1384 1379 1375 1371 1367 1364 1361 1360 1360 1361 1363 1365 1368 1371 1374 1378 1383 1387 1391 1394 1397 1400 1403 1406 1408 1411 1415 1420 1426 1432 1436 1442 1448
1425 1420 1414 1410 1405 1402 1398 1394 1390 1386 1381 1377 1373 1369 1366 1363 1361 1360 1359 1360 1362 1364 1367 1369 1373 1376 1380 1384 1387 1390 1393 1396 1399 1402 1405 1408 1412 1416 1420 1425 1431 1437 1443
1421 1416 1411 1407 1403 1399 1395 1392 1387 1383 1379 1375 1371 1368 1365 1363 1361 1360 1359 1360 1361 1364 1367 1369 1372 1374 1377 1381 1384 1386 1389 1392 1395 1398 1401 1404 1407 1411 1416 1421 1427 1432 1438
1418 1413 1408 1404 1400 1396 1392 1388 1385 1381 1377 1372 1369 1366 1363 1362 1360 1359 1359 1360 1361 1363 1366 1368 1370 1372 1375 1377 1380 1382 1385 1387 1390 1393 1397 1400 1403 1407 1411 1417 1422 1428 1433
1416 1411 1406 1401 1398 1394 1390 1386 1382 1378 1374 1370 1367 1364 1362 1360 1359 1358 1358 1359 1360 1362 1363 1365 1367 1369 1372 1374 1376 1378 1381 1383 1386 1389 1392 1395 1399 1403 1407 1412 1418 1423 1429
1413 1408 1404 1399 1395 1392 1388 1384 1380 1376 1372 1368 1365 1363 1360 1359 1357 1357 1357 1357 1358 1359 1361 1363 1365 1366 1368 1370 1372 1374 1376 1379 1381 1384 1387 1391 1394 1398 1403 1408 1413 1419 1424
1410 1406 1401 1397 1393 1390 1387 1383 1379 1375 1371 1368 1364 1362 1360 1358 1356 1355 1355 1355 1356 1357 1359 1360 1361 1363 1364 1366 1368 1370 1372 1374 1376 1379 1382 1386 1390 1394 1399 1404 1409 1415 1420
1408 1403 1399 1395 1391 1388 1385 1381 1378 1374 1371 1367 1364 1362 1360 1357 1356 1355 1354 1354 1354 1355 1356 1357 1358 1359 1361 1362 1364 1365 1367 1369 1372 1374 1377 1381 1385 1390 1394 1399 1405 1410 1416
1405 1401 1397 1394 1390 1387 1384 1381 1377 1374 1370 1367 1364 1362 1359 1357 1356 1355 1354 1353 1353 1353 1353 1354 1354 1355 1356 1358 1359 1361 1363 1365 1367 1369 1373 1376 1381 1385 1390 1396 1401 1407 1414
1404 1400 1396 1392 1389 1385 1382 1380 1376 1373 1370 1367 1364 1361 1359 1357 1355 1354 1352 1351 1351 1350 1350 1351 1351 1352 1352 1353 1354 1356 1357 1359 1362 1365 1368 1372 1376 1381 1386 1392 1398 1404 1411
1402 1399 1395 1391 1388 1384 1381 1379 1376 1373 1370 1367 1364 1361 1358 1356 1354 1352 1350 1349 1348 1347 1347 1347 1347 1348 1349 1349 1350 1351 1352 1354 1356 1359 1363 1366 1371 1376 1382 1388 1395 1401 1408
1401 1398 1394 1390 1387 1384 1381 1378 1376 1373 1370 1368 1365 1362 1359 1356 1354 1351 1349 1346 1345 1344 1344 1344 1344 1344 1344 1345 1345 1346 1347 1349 1351 1354 1358 1362 1367 1373 1379 1386 1393 1399 1407
1399 1396 1393 1390 1387 1384 1381 1378 1376 1374 1371 1369 1366 1363 1360 1357 1354 1351 1348 1346 1344 1342 1341 1341 1341 1341 1341 1340 1341 1342 1343 1345 1347 1351 1355 1360 1365 1371 1378 1385 1392 1399 1406
1398 1395 1392 1389 1386 1384 1381 1379 1377 1374 1372 1370 1367 1364 1361 1358 1355 1352 1349 1347 1345 1343 1341 1340 1339 1339 1338 1338 1339 1340 1342 1344 1347 1350 1354 1359 1365 1371 1378 1386 1393 1400 1407